,,,PA_Meas_PMT16A,,PR_Meas_QMR101_102,,RH_Meas_QMH101,,SR_Meas_QMS101,,TA_Meas_QMH101,,GenWind,,GenWind,
date,time,status,PA,status,PR,status,RH,status,SR,status,TA,status,DirAvg,status,SpdAvg,
2008-09-20, 00:00:04,VALID,1005.26,VALID,0,VALID,88.907,VALID,0,VALID,25.0274,VALID,352,VALID,0.524609,
2008-09-20, 00:01:04,VALID,1005.22,VALID,0,VALID,88.7086,VALID,0,VALID,25.0644,VALID,349,VALID,0.472656,
2008-09-20, 00:02:04,VALID,1005.19,VALID,0,VALID,88.3348,VALID,0,VALID,25.1442,VALID,346,VALID,0.585938,
2008-09-20, 00:03:04,VALID,1005.16,VALID,0,VALID,88.2433,VALID,0,VALID,25.1423,VALID,351,VALID,0.258203,
2008-09-20, 00:04:04,VALID,1005.14,VALID,0,VALID,88.0525,VALID,0,VALID,25.1832,VALID,353,VALID,0.668359,
2008-09-20, 00:05:04,VALID,1005.14,VALID,0,VALID,87.9839,VALID,0,VALID,25.2221,VALID,8,VALID,0.596484,
2008-09-20, 00:06:04,VALID,1005.12,VALID,0,VALID,87.8847,VALID,0,VALID,25.2221,VALID,9,VALID,0.801953,
2008-09-20, 00:07:04,VALID,1005.08,VALID,0,VALID,87.4041,VALID,0.100563,VALID,25.2416,VALID,354,VALID,0.666797,
2008-09-20, 00:08:04,VALID,1005.08,VALID,0,VALID,87.3125,VALID,0,VALID,25.2611,VALID,356,VALID,0.837891,
2008-09-20, 00:09:04,VALID,1005.1,VALID,0,VALID,87.1066,VALID,0,VALID,25.2611,VALID,355,VALID,0.809766,
2008-09-20, 00:10:04,VALID,1005.08,VALID,0,VALID,86.9464,VALID,0,VALID,25.2786,VALID,355,VALID,0.473437,
2008-09-20, 00:11:04,VALID,1005.07,VALID,0,VALID,86.7099,VALID,0,VALID,25.339,VALID,340,VALID,0.652734,
2008-09-20, 00:12:04,VALID,1005.09,VALID,0,VALID,86.5115,VALID,0.100563,VALID,25.337,VALID,359,VALID,0.723047,
2008-09-20, 00:13:04,VALID,1005.1,VALID,0,VALID,86.3284,VALID,0.100563,VALID,25.3565,VALID,354,VALID,0.851953,
2008-09-20, 00:14:04,VALID,1005.07,VALID,0,VALID,86.3971,VALID,0,VALID,25.4169,VALID,3,VALID,0.900391,
2008-09-20, 00:15:04,VALID,1005.11,VALID,0,VALID,86.2369,VALID,0.100563,VALID,25.3955,VALID,341,VALID,0.708203,
2008-09-20, 00:16:04,VALID,1005.07,VALID,0,VALID,86.1987,VALID,0,VALID,25.4169,VALID,11,VALID,0.582422,
2008-09-20, 00:17:04,VALID,1005.07,VALID,0,VALID,85.947,VALID,0,VALID,25.4169,VALID,339,VALID,0.544531,
2008-09-20, 00:18:04,VALID,1005.05,VALID,0,VALID,86.1072,VALID,0,VALID,25.3974,VALID,346,VALID,0.641406,
2008-09-20, 00:19:04,VALID,1005.04,VALID,0,VALID,85.8936,VALID,0,VALID,25.376,VALID,5,VALID,0.485547,
2008-09-20, 00:20:04,VALID,1005.05,VALID,0,VALID,85.8783,VALID,0.100563,VALID,25.4169,VALID,352,VALID,0.494922,
2008-09-20, 00:21:04,VALID,1005.05,VALID,0,VALID,85.8707,VALID,0,VALID,25.376,VALID,346,VALID,0.7125,
2008-09-20, 00:22:04,VALID,1005.06,VALID,0,VALID,86.0004,VALID,0,VALID,25.4169,VALID,354,VALID,0.644531,
2008-09-20, 00:23:04,VALID,1005.09,VALID,0,VALID,86.0309,VALID,0,VALID,25.3955,VALID,8,VALID,0.596875,
2008-09-20, 00:24:04,VALID,1005.1,VALID,0,VALID,86.069,VALID,0,VALID,25.3974,VALID,25,VALID,0.0691406,
2008-09-20, 00:25:04,VALID,1005.07,VALID,0,VALID,85.9393,VALID,0.100563,VALID,25.3993,VALID,348,VALID,0.674609,
2008-09-20, 00:26:04,VALID,1005.08,VALID,0,VALID,86.0309,VALID,0,VALID,25.3974,VALID,355,VALID,0.355859,
2008-09-20, 00:27:04,VALID,1005.07,VALID,0,VALID,86.2292,VALID,0,VALID,25.3974,VALID,355,VALID,0.207031,
2008-09-20, 00:28:04,VALID,1005.07,VALID,0,VALID,86.4047,VALID,0.100563,VALID,25.3584,VALID,355,VALID,0.267578,
2008-09-20, 00:29:04,VALID,1005.05,VALID,0,VALID,86.4886,VALID,0,VALID,25.2981,VALID,355,VALID,0.317187,
2008-09-20, 00:30:04,VALID,1005.01,VALID,0,VALID,86.6641,VALID,0.100563,VALID,25.2806,VALID,356,VALID,0.247266,
2008-09-20, 00:31:04,VALID,1005.01,VALID,0,VALID,86.7099,VALID,0,VALID,25.2221,VALID,356,VALID,0.0105469,
2008-09-20, 00:32:04,VALID,1004.99,VALID,0,VALID,86.9616,VALID,0,VALID,25.1832,VALID,357,VALID,0.317187,
2008-09-20, 00:33:04,VALID,1004.96,VALID,0,VALID,87.1523,VALID,0,VALID,25.1442,VALID,358,VALID,0.307031,
2008-09-20, 00:34:04,VALID,1004.95,VALID,0,VALID,87.2057,VALID,0,VALID,25.1248,VALID,342,VALID,0.321484,
2008-09-20, 00:35:04,VALID,1004.91,VALID,0,VALID,87.2362,VALID,0,VALID,25.1053,VALID,340,VALID,0.358203,
2008-09-20, 00:36:04,VALID,1004.92,VALID,0,VALID,86.9845,VALID,0,VALID,25.1442,VALID,350,VALID,0.519531,
2008-09-20, 00:37:04,VALID,1004.88,VALID,0,VALID,86.7404,VALID,0.100563,VALID,25.1618,VALID,351,VALID,0.749219,
2008-09-20, 00:38:04,VALID,1004.9,VALID,0,VALID,86.4657,VALID,0,VALID,25.2397,VALID,355,VALID,0.685156,
2008-09-20, 00:39:04,VALID,1004.87,VALID,0,VALID,86.2903,VALID,0.100563,VALID,25.3195,VALID,333,VALID,0.582812,
2008-09-20, 00:40:04,VALID,1004.9,VALID,0,VALID,86.2064,VALID,0.100563,VALID,25.3584,VALID,346,VALID,0.511719,
2008-09-20, 00:41:04,VALID,1004.85,VALID,0,VALID,86.0309,VALID,0.100563,VALID,25.376,VALID,351,VALID,0.924219,
2008-09-20, 00:42:04,VALID,1004.85,VALID,0,VALID,85.8249,VALID,0,VALID,25.4363,VALID,355,VALID,0.719531,
2008-09-20, 00:43:04,VALID,1004.84,VALID,0,VALID,85.6113,VALID,0,VALID,25.4753,VALID,353,VALID,0.773438,
2008-09-20, 00:44:04,VALID,1004.83,VALID,0,VALID,85.6113,VALID,0,VALID,25.5142,VALID,356,VALID,0.698828,
2008-09-20, 00:45:04,VALID,1004.83,VALID,0,VALID,85.6571,VALID,0.100563,VALID,25.5142,VALID,346,VALID,0.73125,
2008-09-20, 00:46:04,VALID,1004.78,VALID,0,VALID,85.6418,VALID,0,VALID,25.5337,VALID,357,VALID,0.839453,
2008-09-20, 00:47:04,VALID,1004.74,VALID,0,VALID,85.7181,VALID,0,VALID,25.4928,VALID,348,VALID,0.844922,
2008-09-20, 00:48:04,VALID,1004.72,VALID,0,VALID,85.7334,VALID,0.100563,VALID,25.4539,VALID,347,VALID,0.982813,
2008-09-20, 00:49:04,VALID,1004.7,VALID,0,VALID,85.9012,VALID,0,VALID,25.4753,VALID,351,VALID,0.847656,
2008-09-20, 00:50:04,VALID,1004.68,VALID,0,VALID,86.0843,VALID,0,VALID,25.4363,VALID,355,VALID,0.740234,
2008-09-20, 00:51:04,VALID,1004.64,VALID,0,VALID,86.2674,VALID,0,VALID,25.4169,VALID,354,VALID,0.698828,
2008-09-20, 00:52:04,VALID,1004.62,VALID,0,VALID,86.3208,VALID,0,VALID,25.3974,VALID,353,VALID,0.755469,
2008-09-20, 00:53:04,VALID,1004.62,VALID,0,VALID,86.2979,VALID,0,VALID,25.376,VALID,352,VALID,0.792969,
2008-09-20, 00:54:04,VALID,1004.61,VALID,0,VALID,86.3894,VALID,0,VALID,25.3584,VALID,351,VALID,0.905078,
2008-09-20, 00:55:04,VALID,1004.62,VALID,0,VALID,86.3971,VALID,0,VALID,25.3604,VALID,360,VALID,0.715234,
2008-09-20, 00:56:04,VALID,1004.64,VALID,0,VALID,86.5573,VALID,0,VALID,25.339,VALID,350,VALID,0.619141,
2008-09-20, 00:57:04,VALID,1004.64,VALID,0,VALID,86.5115,VALID,0,VALID,25.3,VALID,346,VALID,0.680078,
2008-09-20, 00:58:04,VALID,1004.66,VALID,0,VALID,86.4962,VALID,0,VALID,25.3195,VALID,358,VALID,0.819531,
2008-09-20, 00:59:04,VALID,1004.67,VALID,0,VALID,86.214,VALID,0,VALID,25.339,VALID,349,VALID,0.992188,
2008-09-20, 01:00:04,VALID,1004.69,VALID,0,VALID,86.0309,VALID,0,VALID,25.3974,VALID,356,VALID,0.825391,
2008-09-20, 01:01:04,VALID,1004.66,VALID,0,VALID,85.8936,VALID,0,VALID,25.4169,VALID,342,VALID,1.17305,
2008-09-20, 01:02:04,VALID,1004.64,VALID,0,VALID,85.802,VALID,0,VALID,25.4558,VALID,353,VALID,0.919531,
2008-09-20, 01:03:04,VALID,1004.64,VALID,0,VALID,85.8707,VALID,0.100563,VALID,25.4753,VALID,3,VALID,0.382813,
2008-09-20, 01:04:04,VALID,1004.63,VALID,0,VALID,85.6418,VALID,0,VALID,25.4558,VALID,355,VALID,1.07344,
2008-09-20, 01:05:04,VALID,1004.63,VALID,0,VALID,85.5274,VALID,0,VALID,25.4753,VALID,340,VALID,0.651563,
2008-09-20, 01:06:04,VALID,1004.61,VALID,0,VALID,85.802,VALID,0.100563,VALID,25.4734,VALID,7,VALID,0.278125,
2008-09-20, 01:07:04,VALID,1004.59,VALID,0,VALID,85.6952,VALID,0,VALID,25.4948,VALID,328,VALID,0.369141,
2008-09-20, 01:08:05,VALID,1004.57,VALID,0,VALID,85.5808,VALID,0.100563,VALID,25.4734,VALID,343,VALID,0.156641,
2008-09-20, 01:09:05,VALID,1004.54,VALID,0,VALID,85.6723,VALID,0,VALID,25.4967,VALID,291,VALID,0.196094,
2008-09-20, 01:10:05,VALID,1004.53,VALID,0,VALID,85.8402,VALID,0,VALID,25.5181,VALID,282,VALID,0.172266,
2008-09-20, 01:11:05,VALID,1004.5,VALID,0,VALID,85.8707,VALID,0,VALID,25.4967,VALID,298,VALID,0.146484,
2008-09-20, 01:12:05,VALID,1004.49,VALID,0,VALID,85.802,VALID,0,VALID,25.4772,VALID,298,VALID,0.157031,
2008-09-20, 01:13:05,VALID,1004.51,VALID,0,VALID,85.9317,VALID,0,VALID,25.4772,VALID,347,VALID,0.483984,
2008-09-20, 01:14:05,VALID,1004.5,VALID,0,VALID,85.8478,VALID,0,VALID,25.4558,VALID,351,VALID,0.486328,
2008-09-20, 01:15:05,VALID,1004.49,VALID,0,VALID,86.0004,VALID,0,VALID,25.4169,VALID,356,VALID,0.690234,
2008-09-20, 01:16:05,VALID,1004.5,VALID,0,VALID,85.9317,VALID,0,VALID,25.4383,VALID,342,VALID,0.460156,
2008-09-20, 01:17:05,VALID,1004.51,VALID,0,VALID,86.1835,VALID,0,VALID,25.3993,VALID,342,VALID,0.3,
2008-09-20, 01:18:05,VALID,1004.47,VALID,0,VALID,86.1682,VALID,0,VALID,25.3798,VALID,343,VALID,0.346094,
2008-09-20, 01:19:05,VALID,1004.47,VALID,0,VALID,86.3132,VALID,0,VALID,25.3604,VALID,353,VALID,0.530859,
2008-09-20, 01:20:05,VALID,1004.47,VALID,0,VALID,86.3284,VALID,0,VALID,25.3428,VALID,356,VALID,0.638672,
2008-09-20, 01:21:05,VALID,1004.47,VALID,0,VALID,86.3208,VALID,0,VALID,25.3214,VALID,353,VALID,0.591406,
2008-09-20, 01:22:05,VALID,1004.45,VALID,0,VALID,86.3132,VALID,0,VALID,25.3409,VALID,6,VALID,0.649219,
2008-09-20, 01:23:05,VALID,1004.43,VALID,0,VALID,86.214,VALID,0,VALID,25.3,VALID,340,VALID,1.20078,
2008-09-20, 01:24:05,VALID,1004.41,VALID,0,VALID,86.2598,VALID,0,VALID,25.3409,VALID,345,VALID,0.463672,
2008-09-20, 01:25:05,VALID,1004.4,VALID,0,VALID,86.1682,VALID,0,VALID,25.3214,VALID,349,VALID,0.755078,
2008-09-20, 01:26:05,VALID,1004.37,VALID,0,VALID,86.1377,VALID,0,VALID,25.3,VALID,350,VALID,0.783203,
2008-09-20, 01:27:05,VALID,1004.38,VALID,0,VALID,86.069,VALID,0,VALID,25.3214,VALID,31,VALID,0.442187,
2008-09-20, 01:28:05,VALID,1004.37,VALID,0,VALID,86.0614,VALID,0,VALID,25.3409,VALID,29,VALID,0.179688,
2008-09-20, 01:29:05,VALID,1004.39,VALID,0,VALID,86.1301,VALID,0,VALID,25.3195,VALID,358,VALID,0.333203,
2008-09-20, 01:30:05,VALID,1004.36,VALID,0,VALID,86.1987,VALID,0,VALID,25.3214,VALID,358,VALID,0.0457031,
2008-09-20, 01:31:05,VALID,1004.37,VALID,0,VALID,86.0461,VALID,0,VALID,25.3214,VALID,294,VALID,0.609375,
2008-09-20, 01:32:05,VALID,1004.42,VALID,0,VALID,86.0538,VALID,0,VALID,25.3409,VALID,286,VALID,0.369141,
2008-09-20, 01:33:05,VALID,1004.39,VALID,0,VALID,86.0004,VALID,0,VALID,25.3195,VALID,286,VALID,0.140234,
2008-09-20, 01:34:05,VALID,1004.4,VALID,0,VALID,86.214,VALID,0,VALID,25.3409,VALID,288,VALID,0.170703,
2008-09-20, 01:35:05,VALID,1004.38,VALID,0,VALID,86.1987,VALID,0,VALID,25.3,VALID,261,VALID,0.723047,
2008-09-20, 01:36:05,VALID,1004.42,VALID,0,VALID,86.2826,VALID,0,VALID,25.3,VALID,262,VALID,0.123828,
2008-09-20, 01:37:05,VALID,1004.39,VALID,0,VALID,86.1987,VALID,0,VALID,25.3019,VALID,262,VALID,0.0859375,
2008-09-20, 01:38:05,VALID,1004.4,VALID,0,VALID,86.3208,VALID,0,VALID,25.2825,VALID,262,VALID,0,
2008-09-20, 01:39:05,VALID,1004.4,VALID,0,VALID,86.3208,VALID,0,VALID,25.2611,VALID,274,VALID,0.361719,
2008-09-20, 01:40:05,VALID,1004.42,VALID,0,VALID,86.3437,VALID,0.100563,VALID,25.2806,VALID,298,VALID,0.330078,
2008-09-20, 01:41:05,VALID,1004.41,VALID,0,VALID,86.42,VALID,0,VALID,25.2611,VALID,294,VALID,0.0046875,
2008-09-20, 01:42:05,VALID,1004.4,VALID,0,VALID,86.4047,VALID,0,VALID,25.2221,VALID,296,VALID,0.308594,
2008-09-20, 01:43:05,VALID,1004.4,VALID,0,VALID,86.5268,VALID,0,VALID,25.2221,VALID,296,VALID,0.122656,
2008-09-20, 01:44:05,VALID,1004.42,VALID,0,VALID,86.6412,VALID,0.100563,VALID,25.1851,VALID,324,VALID,0.576172,
2008-09-20, 01:45:05,VALID,1004.39,VALID,0,VALID,86.9082,VALID,0.100563,VALID,25.1442,VALID,344,VALID,0.419531,
2008-09-20, 01:46:05,VALID,1004.34,VALID,0,VALID,87.0684,VALID,0.100563,VALID,25.1053,VALID,346,VALID,0.623438,
2008-09-20, 01:47:05,VALID,1004.37,VALID,0,VALID,87.3507,VALID,0,VALID,25.0274,VALID,350,VALID,0.519531,
2008-09-20, 01:48:05,VALID,1004.36,VALID,0,VALID,87.6482,VALID,0.100563,VALID,24.969,VALID,351,VALID,0.103906,
2008-09-20, 01:49:05,VALID,1004.31,VALID,0,VALID,87.8466,VALID,0,VALID,24.93,VALID,351,VALID,0.526563,
2008-09-20, 01:50:05,VALID,1004.29,VALID,0,VALID,88.1593,VALID,0.100563,VALID,24.8503,VALID,351,VALID,0.634766,
2008-09-20, 01:51:05,VALID,1004.31,VALID,0,VALID,88.4035,VALID,0,VALID,24.8113,VALID,354,VALID,0.85625,
2008-09-20, 01:52:05,VALID,1004.27,VALID,0,VALID,88.5789,VALID,0,VALID,24.7937,VALID,353,VALID,0.553906,
2008-09-20, 01:53:05,VALID,1004.26,VALID,0,VALID,88.8002,VALID,0,VALID,24.7335,VALID,351,VALID,0.562109,
2008-09-20, 01:54:05,VALID,1004.25,VALID,0,VALID,89.0138,VALID,0,VALID,24.675,VALID,351,VALID,0.509375,
2008-09-20, 01:55:05,VALID,1004.22,VALID,0,VALID,89.2274,VALID,0,VALID,24.638,VALID,352,VALID,0.470313,
2008-09-20, 01:56:05,VALID,1004.21,VALID,0,VALID,89.4105,VALID,0,VALID,24.5796,VALID,351,VALID,0.611719,
2008-09-20, 01:57:05,VALID,1004.22,VALID,0,VALID,89.647,VALID,0,VALID,24.5212,VALID,352,VALID,0.527344,
2008-09-20, 01:58:05,VALID,1004.2,VALID,0,VALID,89.9445,VALID,0.100563,VALID,24.4433,VALID,353,VALID,0.695703,
2008-09-20, 01:59:05,VALID,1004.17,VALID,0,VALID,90.2268,VALID,0,VALID,24.4043,VALID,350,VALID,0.511328,
2008-09-20, 02:00:05,VALID,1004.17,VALID,0,VALID,90.3031,VALID,0,VALID,24.3441,VALID,345,VALID,0.646094,
2008-09-20, 02:01:05,VALID,1004.15,VALID,0,VALID,90.3488,VALID,0.100563,VALID,24.3459,VALID,1,VALID,0.549219,
2008-09-20, 02:02:05,VALID,1004.13,VALID,0,VALID,90.2115,VALID,0.100563,VALID,24.3441,VALID,356,VALID,0.395312,
2008-09-20, 02:03:05,VALID,1004.13,VALID,0,VALID,90.0589,VALID,0.100563,VALID,24.3636,VALID,335,VALID,0.283594,
2008-09-20, 02:04:05,VALID,1004.11,VALID,0,VALID,90.0055,VALID,0,VALID,24.4433,VALID,295,VALID,0.4375,
2008-09-20, 02:05:05,VALID,1004.1,VALID,0,VALID,89.7843,VALID,0.100563,VALID,24.4822,VALID,356,VALID,0.775781,
2008-09-20, 02:06:05,VALID,1004.08,VALID,0,VALID,89.4715,VALID,0,VALID,24.5406,VALID,348,VALID,0.325,
2008-09-20, 02:07:05,VALID,1004.03,VALID,0,VALID,89.3113,VALID,0.100563,VALID,24.599,VALID,342,VALID,0.315234,
2008-09-20, 02:08:05,VALID,1004.01,VALID,0,VALID,89.1435,VALID,0,VALID,24.6166,VALID,345,VALID,0.584375,
2008-09-20, 02:09:05,VALID,1003.94,VALID,0,VALID,88.7925,VALID,0.100563,VALID,24.6556,VALID,345,VALID,0.703125,
2008-09-20, 02:10:05,VALID,1003.92,VALID,0,VALID,88.4187,VALID,0,VALID,24.7335,VALID,340,VALID,0.934766,
2008-09-20, 02:11:05,VALID,1003.88,VALID,0,VALID,87.8694,VALID,0,VALID,24.8716,VALID,340,VALID,0.795703,
2008-09-20, 02:12:05,VALID,1003.87,VALID,0,VALID,87.5033,VALID,0,VALID,24.969,VALID,338,VALID,0.523828,
2008-09-20, 02:13:05,VALID,1003.83,VALID,0,VALID,87.0913,VALID,0,VALID,24.9866,VALID,348,VALID,0.776953,
2008-09-20, 02:14:05,VALID,1003.85,VALID,0,VALID,86.8167,VALID,0,VALID,25.0663,VALID,337,VALID,0.232422,
2008-09-20, 02:15:05,VALID,1003.77,VALID,0,VALID,86.6336,VALID,0.100563,VALID,25.0858,VALID,337,VALID,0.157813,
2008-09-20, 02:16:05,VALID,1003.79,VALID,0,VALID,86.6259,VALID,0.100563,VALID,25.0858,VALID,337,VALID,0.00117188,
2008-09-20, 02:17:05,VALID,1003.76,VALID,0,VALID,86.6031,VALID,0.100563,VALID,25.0839,VALID,341,VALID,0.299219,
2008-09-20, 02:18:05,VALID,1003.75,VALID,0,VALID,86.5115,VALID,0,VALID,25.1053,VALID,337,VALID,0.248828,
2008-09-20, 02:19:05,VALID,1003.69,VALID,0,VALID,86.542,VALID,0,VALID,25.1248,VALID,334,VALID,0.40625,
2008-09-20, 02:20:05,VALID,1003.69,VALID,0,VALID,86.3132,VALID,0,VALID,25.1229,VALID,355,VALID,0.769531,
2008-09-20, 02:21:05,VALID,1003.69,VALID,0,VALID,86.1758,VALID,0,VALID,25.2027,VALID,339,VALID,0.35625,
2008-09-20, 02:22:05,VALID,1003.71,VALID,0,VALID,86.1224,VALID,0.100563,VALID,25.1618,VALID,337,VALID,0.246094,
2008-09-20, 02:23:05,VALID,1003.71,VALID,0,VALID,86.008,VALID,0.100563,VALID,25.2007,VALID,298,VALID,0.764063,
2008-09-20, 02:24:05,VALID,1003.7,VALID,0,VALID,85.9317,VALID,0,VALID,25.2221,VALID,286,VALID,0.178125,
2008-09-20, 02:25:05,VALID,1003.69,VALID,0,VALID,85.7181,VALID,0,VALID,25.2397,VALID,350,VALID,0.226172,
2008-09-20, 02:26:05,VALID,1003.71,VALID,0,VALID,85.5274,VALID,0,VALID,25.2592,VALID,344,VALID,0.848828,
2008-09-20, 02:27:05,VALID,1003.67,VALID,0,VALID,85.2909,VALID,0,VALID,25.3409,VALID,349,VALID,1.46523,
2008-09-20, 02:28:05,VALID,1003.65,VALID,0,VALID,85.1688,VALID,0,VALID,25.3584,VALID,327,VALID,0.487891,
2008-09-20, 02:29:05,VALID,1003.67,VALID,0,VALID,85.2146,VALID,0,VALID,25.3176,VALID,352,VALID,0.606641,
2008-09-20, 02:30:05,VALID,1003.68,VALID,0,VALID,85.1993,VALID,0,VALID,25.339,VALID,342,VALID,0.869531,
2008-09-20, 02:31:05,VALID,1003.72,VALID,0,VALID,85.2756,VALID,0,VALID,25.339,VALID,316,VALID,0.353125,
2008-09-20, 02:32:05,VALID,1003.73,VALID,0,VALID,85.329,VALID,0,VALID,25.339,VALID,346,VALID,0.388281,
2008-09-20, 02:33:05,VALID,1003.74,VALID,0,VALID,85.4282,VALID,0,VALID,25.2786,VALID,3,VALID,0.512109,
2008-09-20, 02:34:05,VALID,1003.76,VALID,0,VALID,85.474,VALID,0,VALID,25.2786,VALID,297,VALID,0.523438,
2008-09-20, 02:35:05,VALID,1003.75,VALID,0,VALID,85.3977,VALID,0,VALID,25.2786,VALID,350,VALID,0.713281,
2008-09-20, 02:36:05,VALID,1003.74,VALID,0,VALID,85.4282,VALID,0,VALID,25.3195,VALID,307,VALID,0.232422,
2008-09-20, 02:37:05,VALID,1003.72,VALID,0,VALID,85.5121,VALID,0,VALID,25.3195,VALID,347,VALID,0.3625,
2008-09-20, 02:38:05,VALID,1003.73,VALID,0,VALID,85.5808,VALID,0,VALID,25.3,VALID,343,VALID,0.606641,
2008-09-20, 02:39:05,VALID,1003.73,VALID,0,VALID,85.741,VALID,0,VALID,25.2806,VALID,324,VALID,0.434375,
2008-09-20, 02:40:05,VALID,1003.69,VALID,0,VALID,85.9851,VALID,0,VALID,25.2806,VALID,352,VALID,0.580469,
2008-09-20, 02:41:05,VALID,1003.65,VALID,0,VALID,86.3284,VALID,0,VALID,25.2202,VALID,360,VALID,0.379687,
2008-09-20, 02:42:05,VALID,1003.65,VALID,0,VALID,86.3208,VALID,0,VALID,25.1813,VALID,349,VALID,0.566016,
2008-09-20, 02:43:05,VALID,1003.66,VALID,0,VALID,86.4734,VALID,0.100563,VALID,25.1637,VALID,339,VALID,0.801562,
2008-09-20, 02:44:05,VALID,1003.62,VALID,0,VALID,86.687,VALID,0,VALID,25.1248,VALID,350,VALID,0.573828,
2008-09-20, 02:45:05,VALID,1003.61,VALID,0,VALID,86.9006,VALID,0.100563,VALID,25.1072,VALID,348,VALID,0.387109,
2008-09-20, 02:46:05,VALID,1003.66,VALID,0,VALID,87.221,VALID,0,VALID,25.0469,VALID,339,VALID,0.397656,
2008-09-20, 02:47:05,VALID,1003.64,VALID,0,VALID,87.3812,VALID,0,VALID,24.9885,VALID,356,VALID,0.341406,
2008-09-20, 02:48:05,VALID,1003.69,VALID,0,VALID,87.7016,VALID,0,VALID,24.9495,VALID,356,VALID,0.0628906,
2008-09-20, 02:49:05,VALID,1003.68,VALID,0,VALID,88.022,VALID,0,VALID,24.8892,VALID,337,VALID,0.256641,
2008-09-20, 02:50:05,VALID,1003.73,VALID,0,VALID,88.2204,VALID,0.100563,VALID,24.8911,VALID,335,VALID,0.354688,
2008-09-20, 02:51:05,VALID,1003.72,VALID,0,VALID,88.434,VALID,0.100563,VALID,24.8716,VALID,330,VALID,0.265234,
2008-09-20, 02:52:05,VALID,1003.72,VALID,0,VALID,88.5713,VALID,0,VALID,24.8522,VALID,357,VALID,0.665625,
2008-09-20, 02:53:05,VALID,1003.72,VALID,0,VALID,88.6018,VALID,0.100563,VALID,24.8716,VALID,4,VALID,0.607031,
2008-09-20, 02:54:05,VALID,1003.75,VALID,0,VALID,88.6476,VALID,0,VALID,24.8716,VALID,1,VALID,0.613281,
2008-09-20, 02:55:05,VALID,1003.78,VALID,0,VALID,88.5942,VALID,0,VALID,24.854,VALID,360,VALID,0.482422,
2008-09-20, 02:56:05,VALID,1003.79,VALID,0,VALID,88.701,VALID,0,VALID,24.7743,VALID,360,VALID,0.102344,
2008-09-20, 02:57:05,VALID,1003.79,VALID,0,VALID,88.8231,VALID,0,VALID,24.7335,VALID,360,VALID,0,
2008-09-20, 02:58:05,VALID,1003.82,VALID,0,VALID,88.9833,VALID,0,VALID,24.7159,VALID,360,VALID,0,
2008-09-20, 02:59:05,VALID,1003.81,VALID,0,VALID,89.0519,VALID,0,VALID,24.6964,VALID,360,VALID,0.476953,
2008-09-20, 03:00:05,VALID,1003.78,VALID,0,VALID,89.2655,VALID,0,VALID,24.6788,VALID,355,VALID,0.642578,
2008-09-20, 03:01:05,VALID,1003.79,VALID,0,VALID,89.4028,VALID,0,VALID,24.638,VALID,355,VALID,0.673047,
2008-09-20, 03:02:05,VALID,1003.76,VALID,0,VALID,89.4334,VALID,0,VALID,24.638,VALID,349,VALID,0.749609,
2008-09-20, 03:03:05,VALID,1003.77,VALID,0,VALID,89.4944,VALID,0,VALID,24.6185,VALID,346,VALID,0.457031,
2008-09-20, 03:04:05,VALID,1003.81,VALID,0,VALID,89.6546,VALID,0,VALID,24.599,VALID,348,VALID,0.803516,
2008-09-20, 03:05:05,VALID,1003.82,VALID,0,VALID,89.5631,VALID,0,VALID,24.599,VALID,352,VALID,0.763672,
2008-09-20, 03:06:05,VALID,1003.83,VALID,0,VALID,89.6851,VALID,0.100563,VALID,24.5582,VALID,350,VALID,0.378906,
2008-09-20, 03:07:05,VALID,1003.85,VALID,0,VALID,89.7233,VALID,0,VALID,24.5406,VALID,350,VALID,0.421875,
2008-09-20, 03:08:05,VALID,1003.89,VALID,0,VALID,89.7843,VALID,0,VALID,24.5601,VALID,352,VALID,0.324609,
2008-09-20, 03:09:05,VALID,1003.95,VALID,0,VALID,89.8682,VALID,0,VALID,24.5212,VALID,352,VALID,0.357031,
2008-09-20, 03:10:05,VALID,1003.96,VALID,0,VALID,89.9216,VALID,0,VALID,24.523,VALID,352,VALID,0.148828,
2008-09-20, 03:11:05,VALID,1003.99,VALID,0,VALID,89.9674,VALID,0,VALID,24.523,VALID,350,VALID,0.291797,
2008-09-20, 03:12:05,VALID,1004.02,VALID,0,VALID,89.9674,VALID,0,VALID,24.5035,VALID,351,VALID,0.505469,
2008-09-20, 03:13:05,VALID,1004,VALID,0,VALID,89.9292,VALID,0,VALID,24.5035,VALID,351,VALID,0.319922,
2008-09-20, 03:14:05,VALID,1004.02,VALID,0,VALID,89.9216,VALID,0,VALID,24.4822,VALID,351,VALID,0.596484,
2008-09-20, 03:15:05,VALID,1004.03,VALID,0,VALID,89.7309,VALID,0,VALID,24.5035,VALID,355,VALID,0.630078,
2008-09-20, 03:16:05,VALID,1004.06,VALID,0,VALID,89.6241,VALID,0,VALID,24.5017,VALID,3,VALID,0.582422,
2008-09-20, 03:17:05,VALID,1004.06,VALID,0,VALID,89.4944,VALID,0,VALID,24.5035,VALID,338,VALID,0.215625,
2008-09-20, 03:18:05,VALID,1004.09,VALID,0,VALID,89.3723,VALID,0,VALID,24.5017,VALID,308,VALID,0.154687,
2008-09-20, 03:19:05,VALID,1004.1,VALID,0,VALID,89.1664,VALID,0,VALID,24.5212,VALID,244,VALID,0.3125,
2008-09-20, 03:20:05,VALID,1004.07,VALID,0,VALID,88.9527,VALID,0,VALID,24.562,VALID,244,VALID,0,
2008-09-20, 03:21:05,VALID,1004.07,VALID,0,VALID,88.7544,VALID,0,VALID,24.5796,VALID,244,VALID,0.19375,
2008-09-20, 03:22:05,VALID,1004.03,VALID,0,VALID,88.5332,VALID,0,VALID,24.6398,VALID,244,VALID,0.166406,
2008-09-20, 03:23:05,VALID,1004,VALID,0,VALID,88.3577,VALID,0,VALID,24.638,VALID,244,VALID,0.136328,
2008-09-20, 03:24:05,VALID,1003.98,VALID,0,VALID,88.1212,VALID,0.100563,VALID,24.714,VALID,351,VALID,0.639063,
2008-09-20, 03:25:05,VALID,1003.97,VALID,0,VALID,87.8084,VALID,0.100563,VALID,24.7529,VALID,339,VALID,0.396094,
2008-09-20, 03:26:05,VALID,1003.96,VALID,0,VALID,87.5033,VALID,0,VALID,24.8327,VALID,339,VALID,0.446484,
2008-09-20, 03:27:05,VALID,1003.95,VALID,0,VALID,87.3965,VALID,0.100563,VALID,24.8911,VALID,338,VALID,0.560547,
2008-09-20, 03:28:05,VALID,1003.95,VALID,0,VALID,87.0837,VALID,0.100563,VALID,24.9087,VALID,338,VALID,1.04805,
2008-09-20, 03:29:05,VALID,1003.96,VALID,0,VALID,86.7861,VALID,0,VALID,24.969,VALID,347,VALID,0.724609,
2008-09-20, 03:30:05,VALID,1003.96,VALID,0,VALID,86.6031,VALID,0.100563,VALID,25.0255,VALID,344,VALID,0.244922,
2008-09-20, 03:31:05,VALID,1003.97,VALID,0,VALID,86.4734,VALID,0.100563,VALID,25.0644,VALID,349,VALID,0.302344,
2008-09-20, 03:32:05,VALID,1003.98,VALID,0,VALID,86.4581,VALID,0.100563,VALID,25.1053,VALID,351,VALID,0.516797,
2008-09-20, 03:33:05,VALID,1004,VALID,0,VALID,86.42,VALID,0.100563,VALID,25.0839,VALID,358,VALID,0.917578,
2008-09-20, 03:34:05,VALID,1004.05,VALID,0,VALID,86.4047,VALID,0,VALID,25.1229,VALID,273,VALID,0.504687,
2008-09-20, 03:35:05,VALID,1004.08,VALID,0,VALID,86.3589,VALID,0.100563,VALID,25.1229,VALID,295,VALID,0.251563,
2008-09-20, 03:36:05,VALID,1004.06,VALID,0,VALID,86.2445,VALID,0.100563,VALID,25.1442,VALID,355,VALID,0.515625,
2008-09-20, 03:37:05,VALID,1004.1,VALID,0,VALID,86.3284,VALID,0.100563,VALID,25.1034,VALID,355,VALID,0.272266,
2008-09-20, 03:38:05,VALID,1004.12,VALID,0,VALID,86.275,VALID,0.100563,VALID,25.1034,VALID,353,VALID,0.299609,
2008-09-20, 03:39:05,VALID,1004.13,VALID,0,VALID,86.3971,VALID,0,VALID,25.1072,VALID,354,VALID,0.130469,
2008-09-20, 03:40:05,VALID,1004.12,VALID,0,VALID,86.5191,VALID,0,VALID,25.0663,VALID,354,VALID,0.00429688,
2008-09-20, 03:41:05,VALID,1004.16,VALID,0,VALID,86.7327,VALID,0,VALID,25.0079,VALID,354,VALID,0.0472656,